Location: Unspecified
(0.0000°N, 0.0000°E)
Time: 06:42:40
(UTC+00:00)

Vanguard 2 Rocket - Pass Details

Date: 11 October 2023
Orbit: 552 x 3312 km, 32.9° (Epoch: 06 December)

Event Time Altitude Azimuth Distance (km) Brightness Sun altitude
Rises 18:38:30 0° 268° (W) 6,856 13.4 -12.8°
Reaches altitude 10° 18:45:57 10° 251° (WSW) 5,350 12.1 -14.7°
Maximum altitude 18:54:34 17° 215° (SW) 4,002 10.7 -16.8°
Drops below altitude 10° 19:01:07 10° 178° (S) 3,888 10.2 -18.4°
Sets 19:05:16 0° 157° (SSE) 4,390 10.3 -19.5°
